• In Latvia
  • List of Countries
  • For 7 days
  • Water Temperature
  • Satellite Maps
  • Weather Map
  • Weather Widgets
  • user-avatar
    Login

    Hourly Weather Dunkowice

    Today, 23 October, Tuesday

    Time Temperature Precipitation Wind Pressure Humidity
    00:00 +7°C° 0.1 mm 3 mps 750 mmHg 78%
    01:00 +7°C° 0.1 mm 3 mps 750 mmHg 78%
    02:00 +6°C° 0.1 mm 4 mps 749 mmHg 79%
    03:00 +6°C° 0.1 mm 4 mps 749 mmHg 82%
    04:00 +6°C° 0.1 mm 4 mps 749 mmHg 85%
    05:00 +7°C° 0.1 mm 4 mps 748 mmHg 88%
    06:00 +6°C° 0 mm 4 mps 748 mmHg 89%
    07:00 +6°C° 0 mm 4 mps 748 mmHg 90%
    08:00 +5°C° 0 mm 4 mps 748 mmHg 90%
    09:00 +6°C° 0 mm 4 mps 747 mmHg 83%
    10:00 +7°C° 0 mm 5 mps 747 mmHg 75%
    11:00 +8°C° 0 mm 6 mps 746 mmHg 68%
    12:00 +8°C° 0.1 mm 6 mps 745 mmHg 66%
    13:00 +8°C° 0.1 mm 6 mps 744 mmHg 63%
    14:00 +9°C° 0.1 mm 7 mps 743 mmHg 61%
    15:00 +8°C° 0.6 mm 7 mps 742 mmHg 66%
    16:00 +8°C° 0.6 mm 7 mps 741 mmHg 70%
    17:00 +8°C° 0.6 mm 7 mps 740 mmHg 75%
    18:00 +7°C° 0.3 mm 8 mps 739 mmHg 75%
    19:00 +6°C° 0.3 mm 8 mps 738 mmHg 76%
    20:00 +6°C° 0.3 mm 8 mps 737 mmHg 76%
    21:00 +6°C° 0.2 mm 9 mps 737 mmHg 78%
    22:00 +7°C° 0.2 mm 9 mps 736 mmHg 79%
    23:00 +7°C° 0.2 mm 9 mps 735 mmHg 81%

    Tomorrow, 24 October, Wednesday

    Time Temperature Precipitation Wind Pressure Humidity
    00:00 +7°C° 1.2 mm 9 mps 734 mmHg 82%
    01:00 +7°C° 1.2 mm 9 mps 733 mmHg 83%
    02:00 +7°C° 1.2 mm 9 mps 732 mmHg 85%
    03:00 +7°C° 2.6 mm 8 mps 731 mmHg 86%
    04:00 +7°C° 2.6 mm 8 mps 730 mmHg 87%
    05:00 +8°C° 2.6 mm 7 mps 729 mmHg 88%
    06:00 +6°C° 1.9 mm 8 mps 729 mmHg 84%
    07:00 +6°C° 1.9 mm 8 mps 729 mmHg 79%
    08:00 +5°C° 1.9 mm 9 mps 729 mmHg 75%
    09:00 +5°C° 0.3 mm 9 mps 730 mmHg 71%
    10:00 +3°C° 0.3 mm 10 mps 730 mmHg 67%
    11:00 +3°C° 0.3 mm 10 mps 731 mmHg 63%
    12:00 +3°C° 0.1 mm 10 mps 732 mmHg 59%
    13:00 +5°C° 0.1 mm 10 mps 732 mmHg 55%
    14:00 +5°C° 0.1 mm 10 mps 733 mmHg 50%
    15:00 +3°C° 0 mm 10 mps 733 mmHg 52%
    16:00 +3°C° 0 mm 9 mps 733 mmHg 54%
    17:00 +3°C° 0 mm 9 mps 734 mmHg 56%
    18:00 +3°C° 0.1 mm 9 mps 734 mmHg 56%
    19:00 +3°C° 0.1 mm 10 mps 734 mmHg 56%
    20:00 +3°C° 0.1 mm 11 mps 735 mmHg 57%
    21:00 +2°C° 0 mm 11 mps 735 mmHg 58%
    22:00 +2°C° 0 mm 10 mps 736 mmHg 59%
    23:00 +2°C° 0 mm 10 mps 737 mmHg 60%

    Day after tomorrow, 25 October, Thursday

    Time Temperature Precipitation Wind Pressure Humidity
    00:00 +2°C° 0.1 mm 10 mps 737 mmHg 62%
    01:00 +2°C° 0.1 mm 9 mps 738 mmHg 64%
    02:00 +2°C° 0.1 mm 9 mps 739 mmHg 66%
    03:00 +1°C° 0 mm 8 mps 739 mmHg 67%
    04:00 +1°C° 0 mm 8 mps 739 mmHg 69%
    05:00 +2°C° 0 mm 7 mps 740 mmHg 71%
    06:00 0°C° 0 mm 7 mps 740 mmHg 72%
    07:00 +1°C° 0 mm 6 mps 740 mmHg 74%
    08:00 +1°C° 0 mm 6 mps 740 mmHg 76%
    09:00 +2°C° 0 mm 6 mps 740 mmHg 73%
    10:00 +3°C° 0 mm 6 mps 739 mmHg 70%
    11:00 +4°C° 0 mm 7 mps 739 mmHg 67%
    12:00 +4°C° 0.8 mm 7 mps 738 mmHg 72%
    13:00 +3°C° 0.8 mm 7 mps 737 mmHg 77%
    14:00 +3°C° 0.8 mm 7 mps 736 mmHg 81%
    15:00 +5°C° 0.7 mm 8 mps 736 mmHg 82%
    16:00 +6°C° 0.7 mm 8 mps 735 mmHg 82%
    17:00 +7°C° 0.7 mm 9 mps 735 mmHg 82%
    18:00 +7°C° 0.4 mm 8 mps 735 mmHg 81%
    19:00 +6°C° 0.4 mm 8 mps 736 mmHg 80%
    20:00 +6°C° 0.4 mm 8 mps 736 mmHg 80%
    21:00 +6°C° 0.1 mm 8 mps 737 mmHg 81%
    22:00 +5°C° 0.1 mm 7 mps 737 mmHg 83%
    23:00 +5°C° 0.1 mm 7 mps 738 mmHg 84%

    26 October, Friday

    Time Temperature Precipitation Wind Pressure Humidity
    00:00 +4°C° 0 mm 6 mps 739 mmHg 85%
    01:00 +4°C° 0 mm 6 mps 739 mmHg 86%
    02:00 +4°C° 0 mm 6 mps 740 mmHg 88%
    03:00 +5°C° 0 mm 5 mps 740 mmHg 88%
    04:00 +5°C° 0 mm 5 mps 740 mmHg 89%
    05:00 +3°C° 0 mm 5 mps 741 mmHg 90%
    06:00 +4°C° 0 mm 4 mps 741 mmHg 89%
    07:00 +4°C° 0 mm 4 mps 741 mmHg 89%
    08:00 +4°C° 0 mm 4 mps 742 mmHg 89%
    09:00 +5°C° 0 mm 4 mps 742 mmHg 84%
    10:00 +7°C° 0 mm 5 mps 742 mmHg 79%
    11:00 +8°C° 0 mm 5 mps 742 mmHg 74%
    12:00 +8°C° 0 mm 5 mps 742 mmHg 72%
    13:00 +9°C° 0 mm 5 mps 742 mmHg 71%
    14:00 +9°C° 0 mm 5 mps 741 mmHg 69%
    15:00 +10°C° 0 mm 4 mps 741 mmHg 72%
    16:00 +8°C° 0 mm 4 mps 741 mmHg 76%
    17:00 +9°C° 0 mm 3 mps 741 mmHg 79%
    18:00 +8°C° 0 mm 4 mps 741 mmHg 79%
    19:00 +7°C° 0 mm 4 mps 741 mmHg 79%
    20:00 +7°C° 0 mm 4 mps 741 mmHg 79%
    21:00 +7°C° 0 mm 4 mps 741 mmHg 79%
    22:00 +8°C° 0 mm 4 mps 740 mmHg 80%
    23:00 +8°C° 0 mm 4 mps 740 mmHg 80%

    27 October, Saturday

    Time Temperature Precipitation Wind Pressure Humidity
    00:00 +8°C° 0 mm 4 mps 740 mmHg 80%
    01:00 +8°C° 0 mm 4 mps 739 mmHg 81%
    02:00 +8°C° 0 mm 5 mps 739 mmHg 81%
    03:00 +8°C° 0 mm 5 mps 738 mmHg 82%
    04:00 +8°C° 0 mm 4 mps 738 mmHg 83%
    05:00 +8°C° 0 mm 4 mps 738 mmHg 84%
    06:00 +8°C° 0 mm 4 mps 737 mmHg 84%
    07:00 +10°C° 0 mm 4 mps 737 mmHg 84%
    08:00 +10°C° 0 mm 4 mps 737 mmHg 84%
    09:00 +10°C° 0 mm 5 mps 737 mmHg 81%
    10:00 +12°C° 0 mm 5 mps 737 mmHg 79%
    11:00 +13°C° 0 mm 5 mps 737 mmHg 76%
    12:00 +13°C° 0.5 mm 5 mps 736 mmHg 78%
    13:00 +13°C° 0.5 mm 4 mps 736 mmHg 80%
    14:00 +13°C° 0.5 mm 3 mps 736 mmHg 83%
    15:00 +13°C° 1.1 mm 3 mps 735 mmHg 83%
    16:00 +13°C° 1.1 mm 3 mps 735 mmHg 84%
    17:00 +13°C° 1.1 mm 3 mps 735 mmHg 85%
    18:00 +12°C° 0.7 mm 3 mps 735 mmHg 87%
    19:00 +12°C° 0.7 mm 3 mps 735 mmHg 88%
    20:00 +11°C° 0.7 mm 3 mps 735 mmHg 90%
    21:00 +11°C° 0.2 mm 3 mps 735 mmHg 91%
    22:00 +10°C° 0.2 mm 2 mps 735 mmHg 92%
    23:00 +10°C° 0.2 mm 2 mps 735 mmHg 93%

    28 October, Sunday

    Time Temperature Precipitation Wind Pressure Humidity
    00:00 +10°C° 0.5 mm 2 mps 735 mmHg 93%
    01:00 +10°C° 0.5 mm 2 mps 734 mmHg 93%
    02:00 +9°C° 0.5 mm 2 mps 734 mmHg 92%
    03:00 +10°C° 0.6 mm 3 mps 733 mmHg 92%
    04:00 +10°C° 0.6 mm 3 mps 733 mmHg 91%
    05:00 +10°C° 0.6 mm 3 mps 732 mmHg 90%
    06:00 +10°C° 0.3 mm 4 mps 732 mmHg 89%
    07:00 +11°C° 0.3 mm 4 mps 732 mmHg 87%
    08:00 +11°C° 0.3 mm 4 mps 732 mmHg 86%
    09:00 +10°C° 0.2 mm 5 mps 733 mmHg 84%
    10:00 +12°C° 0.2 mm 5 mps 733 mmHg 83%
    11:00 +11°C° 0.2 mm 6 mps 733 mmHg 81%
    12:00 +11°C° 0 mm 6 mps 734 mmHg 77%
    13:00 +11°C° 0 mm 6 mps 735 mmHg 72%
    14:00 +13°C° 0 mm 6 mps 735 mmHg 67%
    15:00 +10°C° 0 mm 6 mps 736 mmHg 71%
    16:00 +9°C° 0 mm 5 mps 738 mmHg 75%
    17:00 +7°C° 0 mm 4 mps 739 mmHg 79%
    18:00 +7°C° 0 mm 4 mps 740 mmHg 80%
    19:00 +7°C° 0 mm 3 mps 741 mmHg 81%
    20:00 +7°C° 0 mm 3 mps 742 mmHg 82%
    21:00 +6°C° 0 mm 2 mps 742 mmHg 84%
    22:00 +6°C° 0 mm 2 mps 743 mmHg 86%
    23:00 +6°C° 0 mm 1 mps 743 mmHg 88%

    29 October, Monday

    Time Temperature Precipitation Wind Pressure Humidity
    00:00 +6°C° 0 mm 1 mps 744 mmHg 88%
    01:00 +5°C° 0 mm 1 mps 744 mmHg 88%
    02:00 +4°C° 0 mm 0 mps 744 mmHg 88%
    03:00 +5°C° 0 mm 1 mps 744 mmHg 88%
    04:00 +5°C° 0 mm 1 mps 744 mmHg 88%
    05:00 +5°C° 0 mm 1 mps 744 mmHg 87%
    06:00 +5°C° 0 mm 1 mps 745 mmHg 87%
    07:00 +5°C° 0 mm 1 mps 745 mmHg 86%
    08:00 +5°C° 0 mm 1 mps 745 mmHg 85%
    09:00 +5°C° 0 mm 2 mps 745 mmHg 82%
    10:00 +6°C° 0 mm 2 mps 745 mmHg 80%
    11:00 +7°C° 0 mm 3 mps 745 mmHg 77%
    12:00 +7°C° 0.1 mm 3 mps 744 mmHg 78%
    13:00 +7°C° 0.1 mm 4 mps 744 mmHg 79%
    14:00 +7°C° 0.1 mm 4 mps 744 mmHg 79%
    15:00 +7°C° 0.2 mm 4 mps 743 mmHg 82%
    16:00 +7°C° 0.2 mm 4 mps 743 mmHg 84%
    17:00 +6°C° 0.2 mm 5 mps 742 mmHg 86%
    18:00 +6°C° 0.4 mm 5 mps 742 mmHg 87%
    19:00 +6°C° 0.4 mm 5 mps 742 mmHg 88%
    20:00 +5°C° 0.4 mm 6 mps 741 mmHg 89%
    21:00 +6°C° 0.4 mm 5 mps 741 mmHg 89%
    22:00 +6°C° 0.4 mm 5 mps 740 mmHg 90%
    23:00 +6°C° 0.4 mm 5 mps 740 mmHg 91%
    Show more